• In Germany
  • List of Countries
  • For 7 days
  • Water Temperature
  • Satellite Maps
  • Weather Map
  • Weather Widgets
  • user-avatar
    Login

    Hourly Weather Kalwaria Zebrzydowska

    Today, 22 October, Sunday

    Time Temperature Precipitation Wind Pressure Humidity
    00:00 +9°C° 0 mm 1 mps 734 mmHg 90%
    01:00 +8°C° 0 mm 1 mps 733 mmHg 90%
    02:00 +8°C° 0 mm 1 mps 733 mmHg 90%
    03:00 +8°C° 0 mm 1 mps 733 mmHg 90%
    04:00 +8°C° 0 mm 1 mps 733 mmHg 89%
    05:00 +8°C° 0 mm 1 mps 733 mmHg 87%
    06:00 +8°C° 0 mm 1 mps 733 mmHg 86%
    07:00 +7°C° 0 mm 2 mps 732 mmHg 84%
    08:00 +9°C° 0.1 mm 2 mps 732 mmHg 77%
    09:00 +10°C° 0.1 mm 2 mps 732 mmHg 71%
    10:00 +13°C° 0.1 mm 2 mps 732 mmHg 65%
    11:00 +13°C° 0.5 mm 2 mps 732 mmHg 70%
    12:00 +12°C° 0.5 mm 2 mps 732 mmHg 75%
    13:00 +12°C° 0.5 mm 2 mps 732 mmHg 80%
    14:00 +10°C° 0.2 mm 2 mps 731 mmHg 83%
    15:00 +10°C° 0.2 mm 2 mps 731 mmHg 86%
    16:00 +10°C° 0.2 mm 2 mps 731 mmHg 89%
    17:00 +10°C° 0.2 mm 2 mps 731 mmHg 90%
    18:00 +9°C° 0.2 mm 2 mps 731 mmHg 91%
    19:00 +9°C° 0.2 mm 2 mps 731 mmHg 92%
    20:00 +9°C° 0.3 mm 2 mps 731 mmHg 92%
    21:00 +10°C° 0.3 mm 1 mps 731 mmHg 93%
    22:00 +9°C° 0.3 mm 1 mps 731 mmHg 93%
    23:00 +9°C° 0.7 mm 1 mps 731 mmHg 94%

    Tomorrow, 23 October, Monday

    Time Temperature Precipitation Wind Pressure Humidity
    00:00 +9°C° 0.7 mm 1 mps 731 mmHg 94%
    01:00 +8°C° 0.7 mm 2 mps 730 mmHg 94%
    02:00 +8°C° 0.6 mm 2 mps 730 mmHg 94%
    03:00 +8°C° 0.6 mm 2 mps 730 mmHg 94%
    04:00 +8°C° 0.6 mm 2 mps 729 mmHg 94%
    05:00 +8°C° 0.4 mm 2 mps 729 mmHg 93%
    06:00 +8°C° 0.4 mm 3 mps 729 mmHg 93%
    07:00 +8°C° 0.4 mm 3 mps 729 mmHg 92%
    08:00 +8°C° 0.5 mm 3 mps 729 mmHg 90%
    09:00 +8°C° 0.5 mm 3 mps 729 mmHg 89%
    10:00 +7°C° 0.5 mm 4 mps 730 mmHg 87%
    11:00 +7°C° 0.7 mm 4 mps 730 mmHg 87%
    12:00 +7°C° 0.7 mm 4 mps 729 mmHg 88%
    13:00 +7°C° 0.7 mm 4 mps 729 mmHg 88%
    14:00 +7°C° 1.1 mm 4 mps 730 mmHg 88%
    15:00 +7°C° 1.1 mm 4 mps 730 mmHg 89%
    16:00 +7°C° 1.1 mm 4 mps 730 mmHg 90%
    17:00 +7°C° 1.5 mm 4 mps 730 mmHg 91%
    18:00 +7°C° 1.5 mm 4 mps 730 mmHg 92%
    19:00 +7°C° 1.5 mm 4 mps 731 mmHg 93%
    20:00 +7°C° 1.4 mm 4 mps 731 mmHg 93%
    21:00 +7°C° 1.4 mm 4 mps 732 mmHg 93%
    22:00 +7°C° 1.4 mm 4 mps 732 mmHg 94%
    23:00 +7°C° 0.7 mm 4 mps 732 mmHg 93%

    Day after tomorrow, 24 October, Tuesday

    Time Temperature Precipitation Wind Pressure Humidity
    00:00 +7°C° 0.7 mm 4 mps 733 mmHg 93%
    01:00 +6°C° 0.7 mm 4 mps 733 mmHg 93%
    02:00 +7°C° 0.2 mm 3 mps 733 mmHg 93%
    03:00 +7°C° 0.2 mm 3 mps 734 mmHg 92%
    04:00 +7°C° 0.2 mm 3 mps 734 mmHg 92%
    05:00 +7°C° 0.1 mm 3 mps 735 mmHg 92%
    06:00 +7°C° 0.1 mm 3 mps 735 mmHg 91%
    07:00 +7°C° 0.1 mm 3 mps 736 mmHg 91%
    08:00 +7°C° 0 mm 3 mps 736 mmHg 89%
    09:00 +7°C° 0 mm 3 mps 737 mmHg 88%
    10:00 +8°C° 0 mm 2 mps 737 mmHg 86%
    11:00 +8°C° 0 mm 2 mps 738 mmHg 85%
    12:00 +8°C° 0 mm 2 mps 738 mmHg 83%
    13:00 +9°C° 0 mm 2 mps 738 mmHg 81%
    14:00 +9°C° 0 mm 2 mps 738 mmHg 82%
    15:00 +8°C° 0 mm 2 mps 738 mmHg 82%
    16:00 +9°C° 0 mm 1 mps 739 mmHg 83%
    17:00 +9°C° 0 mm 1 mps 739 mmHg 84%
    18:00 +9°C° 0 mm 1 mps 740 mmHg 85%
    19:00 +9°C° 0 mm 1 mps 740 mmHg 86%
    20:00 +8°C° 0 mm 1 mps 740 mmHg 87%
    21:00 +7°C° 0 mm 1 mps 740 mmHg 89%
    22:00 +6°C° 0 mm 0 mps 740 mmHg 90%
    23:00 +6°C° 0 mm 0 mps 740 mmHg 91%

    25 October, Wednesday

    Time Temperature Precipitation Wind Pressure Humidity
    00:00 +5°C° 0 mm 0 mps 740 mmHg 91%
    01:00 +5°C° 0 mm 0 mps 740 mmHg 92%
    02:00 +4°C° 0 mm 0 mps 740 mmHg 92%
    03:00 +5°C° 0 mm 1 mps 740 mmHg 93%
    04:00 +5°C° 0 mm 1 mps 740 mmHg 93%
    05:00 +5°C° 0 mm 1 mps 740 mmHg 92%
    06:00 +5°C° 0 mm 1 mps 740 mmHg 91%
    07:00 +5°C° 0 mm 1 mps 740 mmHg 90%
    08:00 +7°C° 0 mm 1 mps 740 mmHg 83%
    09:00 +9°C° 0 mm 1 mps 740 mmHg 76%
    10:00 +10°C° 0 mm 1 mps 740 mmHg 69%
    11:00 +11°C° 0 mm 1 mps 740 mmHg 66%
    12:00 +12°C° 0 mm 1 mps 740 mmHg 63%
    13:00 +13°C° 0 mm 1 mps 739 mmHg 60%
    14:00 +13°C° 0 mm 1 mps 739 mmHg 65%
    15:00 +12°C° 0 mm 1 mps 739 mmHg 69%
    16:00 +12°C° 0 mm 1 mps 739 mmHg 73%
    17:00 +10°C° 0 mm 2 mps 739 mmHg 76%
    18:00 +10°C° 0 mm 2 mps 739 mmHg 78%
    19:00 +9°C° 0 mm 2 mps 739 mmHg 81%
    20:00 +9°C° 0 mm 2 mps 739 mmHg 83%
    21:00 +10°C° 0 mm 3 mps 739 mmHg 85%
    22:00 +10°C° 0 mm 3 mps 739 mmHg 87%
    23:00 +10°C° 0 mm 3 mps 739 mmHg 88%

    26 October, Thursday

    Time Temperature Precipitation Wind Pressure Humidity
    00:00 +10°C° 0 mm 3 mps 739 mmHg 90%
    01:00 +10°C° 0 mm 3 mps 739 mmHg 91%
    02:00 +10°C° 0 mm 3 mps 739 mmHg 91%
    03:00 +11°C° 0 mm 3 mps 738 mmHg 91%
    04:00 +11°C° 0 mm 3 mps 738 mmHg 91%
    05:00 +11°C° 0 mm 3 mps 738 mmHg 91%
    06:00 +11°C° 0 mm 3 mps 739 mmHg 91%
    07:00 +11°C° 0 mm 3 mps 739 mmHg 91%
    08:00 +12°C° 0.1 mm 3 mps 739 mmHg 88%
    09:00 +12°C° 0.1 mm 4 mps 739 mmHg 84%
    10:00 +13°C° 0.1 mm 4 mps 739 mmHg 80%
    11:00 +14°C° 0 mm 4 mps 739 mmHg 76%
    12:00 +14°C° 0 mm 4 mps 739 mmHg 72%
    13:00 +15°C° 0 mm 5 mps 738 mmHg 67%
    14:00 +14°C° 0 mm 4 mps 738 mmHg 71%
    15:00 +13°C° 0 mm 3 mps 738 mmHg 74%
    16:00 +13°C° 0 mm 3 mps 738 mmHg 77%
    17:00 +12°C° 0 mm 3 mps 738 mmHg 80%
    18:00 +12°C° 0 mm 2 mps 738 mmHg 83%
    19:00 +10°C° 0 mm 2 mps 738 mmHg 87%
    20:00 +10°C° 0 mm 2 mps 737 mmHg 87%
    21:00 +10°C° 0 mm 2 mps 737 mmHg 88%
    22:00 +10°C° 0 mm 2 mps 737 mmHg 89%
    23:00 +10°C° 0.1 mm 3 mps 737 mmHg 89%

    27 October, Friday

    Time Temperature Precipitation Wind Pressure Humidity
    00:00 +10°C° 0.1 mm 3 mps 737 mmHg 90%
    01:00 +10°C° 0.1 mm 3 mps 736 mmHg 91%
    02:00 +10°C° 0 mm 3 mps 736 mmHg 91%
    03:00 +10°C° 0 mm 3 mps 736 mmHg 91%
    04:00 +10°C° 0 mm 3 mps 735 mmHg 91%
    05:00 +9°C° 0 mm 3 mps 735 mmHg 91%
    06:00 +9°C° 0 mm 3 mps 735 mmHg 91%
    07:00 +9°C° 0 mm 3 mps 734 mmHg 91%
    08:00 +10°C° 0 mm 4 mps 734 mmHg 85%
    09:00 +11°C° 0 mm 4 mps 734 mmHg 79%
    10:00 +12°C° 0 mm 5 mps 733 mmHg 73%
    11:00 +13°C° 0 mm 5 mps 732 mmHg 72%
    12:00 +13°C° 0 mm 5 mps 732 mmHg 70%
    13:00 +13°C° 0 mm 5 mps 731 mmHg 69%
    14:00 +13°C° 0 mm 5 mps 730 mmHg 72%
    15:00 +13°C° 0 mm 5 mps 729 mmHg 75%
    16:00 +12°C° 0 mm 4 mps 728 mmHg 78%
    17:00 +12°C° 0.3 mm 5 mps 727 mmHg 79%
    18:00 +12°C° 0.3 mm 5 mps 726 mmHg 80%
    19:00 +11°C° 0.3 mm 6 mps 725 mmHg 80%
    20:00 +11°C° 1.2 mm 6 mps 724 mmHg 82%
    21:00 +11°C° 1.2 mm 6 mps 723 mmHg 84%
    22:00 +11°C° 1.2 mm 6 mps 723 mmHg 86%
    23:00 +10°C° 1.7 mm 7 mps 723 mmHg 85%
    Show more